User: anonymous   Login
Location: Oracle State Park
(32.6095°N, 110.7330°W)
Time: 05:02:29
(UTC-07:00)
Language:

AO-92 - Orbit

View from above orbital plane
View from above orbital plane
View from above satellite
View from above satellite

Ground track
Ground track

The orbit data is extracted from the following two-line orbital elements,

1 43137U 18004AC  19320.88439703 +.00001004 +00000-0 +44739-4 0  9994
2 43137 097.4722 028.2345 0010906 087.1965 273.0520 15.23715089102527
Epoch (UTC): 16 November 2019 21:13:31
Eccentricity: 0.0010906
inclination: 97.4722°
perigee height: 487 km
apogee height: 502 km
right ascension of ascending node: 28.2345°
argument of perigee: 87.1965°
revolutions per day: 15.23715089
mean anomaly at epoch: 273.0520°
orbit number at epoch: 10252

The dashed part of the orbit path shows where the satellite is in the earth's shadow,  

DLR